TimeCST,TemperatureF,Dew PointF,Humidity,Sea Level PressureIn,VisibilityMPH,Wind Direction,Wind SpeedMPH,Gust SpeedMPH,PrecipitationIn,Events,Conditions,WindDirDegrees,DateUTC
12:15 AM,23.0,1.4,39,30.04,10.0,East,5.8,-,N/A,,Mostly Cloudy,90,2013-03-04 06:15:00
12:55 AM,24.8,1.4,36,30.04,10.0,East,9.2,-,N/A,,Mostly Cloudy,100,2013-03-04 06:55:00
1:15 AM,24.8,3.2,40,30.04,10.0,East,8.1,-,N/A,,Overcast,100,2013-03-04 07:15:00
1:35 AM,24.8,3.2,40,30.04,10.0,East,6.9,-,N/A,,Overcast,100,2013-03-04 07:35:00
1:55 AM,24.8,5.0,43,30.04,10.0,ESE,10.4,-,N/A,,Overcast,110,2013-03-04 07:55:00
2:15 AM,26.6,3.2,37,30.03,10.0,East,10.4,-,N/A,,Overcast,100,2013-03-04 08:15:00
2:35 AM,24.8,5.0,43,30.03,10.0,East,6.9,-,N/A,,Overcast,100,2013-03-04 08:35:00
3:15 AM,24.8,5.0,43,30.02,10.0,East,5.8,-,N/A,,Overcast,90,2013-03-04 09:15:00
3:35 AM,24.8,5.0,43,30.02,10.0,East,8.1,-,N/A,,Overcast,100,2013-03-04 09:35:00
3:55 AM,24.8,5.0,43,30.01,10.0,East,8.1,-,N/A,,Overcast,100,2013-03-04 09:55:00
4:15 AM,24.8,5.0,43,30.01,10.0,East,6.9,-,N/A,,Overcast,90,2013-03-04 10:15:00
4:35 AM,24.8,6.8,46,30.01,10.0,East,8.1,-,N/A,,Overcast,100,2013-03-04 10:35:00
4:55 AM,24.8,8.6,50,30.01,10.0,ESE,9.2,-,N/A,,Overcast,110,2013-03-04 10:55:00
5:15 AM,24.8,8.6,50,30.01,10.0,East,10.4,-,N/A,,Overcast,100,2013-03-04 11:15:00
5:35 AM,24.8,8.6,50,30.01,10.0,East,10.4,-,N/A,,Overcast,100,2013-03-04 11:35:00
5:55 AM,24.8,8.6,50,30.01,10.0,East,10.4,-,N/A,,Overcast,100,2013-03-04 11:55:00
6:15 AM,24.8,10.4,54,30.01,10.0,ESE,13.8,-,N/A,,Overcast,110,2013-03-04 12:15:00
6:35 AM,26.6,10.4,51,30.01,10.0,East,11.5,-,N/A,,Overcast,100,2013-03-04 12:35:00
6:55 AM,26.6,8.6,47,30.01,10.0,East,10.4,16.1,N/A,,Overcast,100,2013-03-04 12:55:00
7:15 AM,26.6,8.6,47,30.01,10.0,ESE,10.4,-,N/A,,Overcast,110,2013-03-04 13:15:00
7:35 AM,26.6,8.6,47,30.01,10.0,ESE,12.7,-,N/A,,Overcast,110,2013-03-04 13:35:00
7:55 AM,26.6,8.6,47,30.02,10.0,ESE,10.4,-,N/A,,Overcast,110,2013-03-04 13:55:00
8:15 AM,26.6,10.4,51,30.02,10.0,ESE,13.8,20.7,N/A,,Overcast,110,2013-03-04 14:15:00
8:35 AM,26.6,10.4,51,30.02,10.0,ESE,12.7,-,N/A,,Overcast,110,2013-03-04 14:35:00
8:55 AM,26.6,10.4,51,30.02,10.0,ESE,11.5,-,N/A,,Overcast,110,2013-03-04 14:55:00
9:15 AM,26.6,10.4,51,30.03,10.0,ESE,13.8,-,N/A,,Overcast,110,2013-03-04 15:15:00
9:35 AM,26.6,10.4,51,30.03,10.0,ESE,13.8,-,N/A,,Overcast,110,2013-03-04 15:35:00
9:55 AM,26.6,10.4,51,30.03,10.0,East,13.8,-,N/A,,Overcast,100,2013-03-04 15:55:00
10:15 AM,26.6,12.2,55,30.03,10.0,East,13.8,-,N/A,,Overcast,100,2013-03-04 16:15:00
10:35 AM,26.6,12.2,55,30.03,10.0,East,18.4,23.0,N/A,,Overcast,100,2013-03-04 16:35:00
10:55 AM,26.6,12.2,55,30.03,10.0,ESE,17.3,-,N/A,,Overcast,110,2013-03-04 16:55:00
11:15 AM,26.6,12.2,55,30.03,10.0,ESE,12.7,-,N/A,,Overcast,110,2013-03-04 17:15:00
11:35 AM,26.6,14.0,59,30.03,10.0,East,13.8,-,N/A,,Overcast,100,2013-03-04 17:35:00
11:55 AM,26.6,19.4,74,30.02,1.5,East,16.1,21.9,N/A,Snow,Light Snow,100,2013-03-04 17:55:00
12:15 PM,26.6,21.2,80,30.02,1.2,East,11.5,-,N/A,Snow,Light Snow,100,2013-03-04 18:15:00
12:55 PM,26.6,21.2,80,30.00,2.0,ESE,10.4,-,N/A,Snow,Light Snow,110,2013-03-04 18:55:00
1:15 PM,26.6,21.2,80,30.01,3.0,East,9.2,-,N/A,Snow,Light Snow,90,2013-03-04 19:15:00
1:35 PM,26.6,21.2,80,30.01,3.0,East,11.5,-,N/A,Snow,Light Snow,80,2013-03-04 19:35:00
1:55 PM,26.6,21.2,80,30.01,1.2,East,9.2,-,N/A,Snow,Light Snow,80,2013-03-04 19:55:00
2:15 PM,26.6,23.0,86,30.00,1.0,East,10.4,-,N/A,Snow,Light Snow,90,2013-03-04 20:15:00
2:35 PM,26.6,21.2,80,30.00,5.0,East,10.4,-,N/A,Snow,Light Snow,100,2013-03-04 20:35:00
2:55 PM,26.6,21.2,80,30.00,7.0,East,11.5,-,N/A,,Overcast,100,2013-03-04 20:55:00
3:35 PM,26.6,21.2,80,30.01,4.0,East,9.2,-,N/A,Snow,Light Snow,100,2013-03-04 21:35:00
3:55 PM,26.6,21.2,80,30.01,3.0,East,8.1,-,N/A,Snow,Light Snow,100,2013-03-04 21:55:00
4:15 PM,26.6,21.2,80,30.02,5.0,East,6.9,-,N/A,Snow,Light Snow,100,2013-03-04 22:15:00
4:35 PM,26.6,21.2,80,30.02,10.0,East,11.5,-,N/A,,Overcast,100,2013-03-04 22:35:00
4:55 PM,26.6,21.2,80,30.03,10.0,East,8.1,-,N/A,,Overcast,100,2013-03-04 22:55:00
5:15 PM,26.6,21.2,80,30.02,10.0,ESE,10.4,-,N/A,,Overcast,110,2013-03-04 23:15:00
5:35 PM,26.6,21.2,80,30.02,10.0,ESE,9.2,-,N/A,,Overcast,110,2013-03-04 23:35:00
5:55 PM,26.6,21.2,80,30.02,7.0,East,8.1,-,N/A,Snow,Light Snow,100,2013-03-04 23:55:00
6:15 PM,26.6,21.2,80,30.02,7.0,East,8.1,-,N/A,Snow,Light Snow,100,2013-03-05 00:15:00
6:35 PM,26.6,21.2,80,30.02,10.0,East,6.9,-,N/A,,Overcast,100,2013-03-05 00:35:00
6:55 PM,26.6,21.2,80,30.03,10.0,East,6.9,-,N/A,Snow,Light Snow,100,2013-03-05 00:55:00
7:15 PM,26.6,21.2,80,30.03,10.0,East,9.2,-,N/A,Snow,Light Snow,100,2013-03-05 01:15:00
7:35 PM,26.6,21.2,80,30.04,10.0,ESE,6.9,-,N/A,Snow,Light Snow,110,2013-03-05 01:35:00
7:55 PM,26.6,21.2,80,30.03,7.0,East,9.2,-,N/A,Snow,Light Snow,100,2013-03-05 01:55:00
8:35 PM,26.6,21.2,80,30.06,10.0,ESE,6.9,-,N/A,,Overcast,110,2013-03-05 02:35:00
8:55 PM,26.6,21.2,80,30.07,7.0,ESE,5.8,-,N/A,Snow,Light Snow,120,2013-03-05 02:55:00
9:15 PM,26.6,23.0,86,30.07,4.0,ESE,5.8,-,N/A,Snow,Light Snow,110,2013-03-05 03:15:00
9:35 PM,26.6,23.0,86,30.07,2.5,East,3.5,-,N/A,Snow,Light Snow,100,2013-03-05 03:35:00
9:55 PM,26.6,23.0,86,30.07,3.0,East,4.6,-,N/A,Snow,Light Snow,100,2013-03-05 03:55:00
10:15 PM,26.6,23.0,86,30.08,2.0,East,5.8,-,N/A,Snow,Light Snow,100,2013-03-05 04:15:00
10:35 PM,26.6,23.0,86,30.07,5.0,East,4.6,-,N/A,Snow,Light Snow,100,2013-03-05 04:35:00
10:55 PM,26.6,23.0,86,30.07,2.5,East,6.9,-,N/A,Snow,Light Snow,100,2013-03-05 04:55:00
11:35 PM,26.6,23.0,86,30.06,2.5,East,8.1,-,N/A,Snow,Light Snow,90,2013-03-05 05:35:00
11:55 PM,26.6,23.0,86,30.06,1.2,East,8.1,-,N/A,Snow,Light Snow,90,2013-03-05 05:55:00